TimeEST,TemperatureF,Dew PointF,Humidity,Sea Level PressureIn,VisibilityMPH,Wind Direction,Wind SpeedMPH,Gust SpeedMPH,PrecipitationIn,Events,Conditions,WindDirDegrees,DateUTC
12:53 AM,21.0,12.9,71,30.25,10.0,Calm,Calm,-,N/A,,Mostly Cloudy,0,2013-11-28 05:53:00
1:53 AM,21.9,14.0,72,30.26,10.0,WSW,3.5,-,N/A,,Partly Cloudy,240,2013-11-28 06:53:00
2:53 AM,21.9,15.1,75,30.27,10.0,Calm,Calm,-,N/A,,Overcast,0,2013-11-28 07:53:00
3:53 AM,23.0,18.0,81,30.26,10.0,SW,5.8,-,N/A,,Mostly Cloudy,220,2013-11-28 08:53:00
4:31 AM,23.0,19.4,86,30.22,2.5,SSW,6.9,-,0.00,Snow,Light Snow,210,2013-11-28 09:31:00
4:49 AM,24.8,19.4,80,30.22,1.8,SSW,8.1,-,0.00,Snow,Light Snow,200,2013-11-28 09:49:00
4:53 AM,24.1,19.9,84,30.26,2.0,South,8.1,-,0.00,Snow,Light Snow,190,2013-11-28 09:53:00
4:58 AM,24.8,19.4,80,30.22,3.0,South,10.4,-,0.00,Snow,Light Snow,190,2013-11-28 09:58:00
5:24 AM,23.0,19.4,86,30.23,10.0,South,8.1,-,0.00,,Overcast,180,2013-11-28 10:24:00
5:53 AM,24.1,19.0,81,30.27,10.0,SSW,8.1,-,0.00,,Overcast,200,2013-11-28 10:53:00
6:53 AM,24.1,15.1,69,30.29,10.0,SSW,5.8,-,N/A,,Overcast,200,2013-11-28 11:53:00
7:53 AM,24.1,12.0,60,30.30,10.0,SSW,9.2,-,N/A,,Overcast,210,2013-11-28 12:53:00
8:53 AM,24.1,12.9,62,30.31,10.0,SSW,9.2,-,N/A,,Overcast,200,2013-11-28 13:53:00
9:53 AM,24.1,14.0,65,30.31,10.0,South,10.4,-,N/A,,Overcast,190,2013-11-28 14:53:00
10:53 AM,25.0,14.0,63,30.30,10.0,South,13.8,-,N/A,,Overcast,190,2013-11-28 15:53:00
11:53 AM,26.1,12.9,58,30.28,10.0,SSW,13.8,-,N/A,,Overcast,210,2013-11-28 16:53:00
12:53 PM,26.1,12.9,58,30.26,10.0,SSW,10.4,-,N/A,,Overcast,210,2013-11-28 17:53:00
1:53 PM,27.0,14.0,58,30.25,10.0,SSW,11.5,-,N/A,,Overcast,210,2013-11-28 18:53:00
2:53 PM,28.0,12.9,53,30.26,10.0,SSW,10.4,-,N/A,,Overcast,210,2013-11-28 19:53:00
3:53 PM,28.0,12.9,53,30.28,10.0,SW,6.9,-,N/A,,Overcast,220,2013-11-28 20:53:00
4:53 PM,27.0,12.9,56,30.31,10.0,South,5.8,-,N/A,,Overcast,190,2013-11-28 21:53:00
5:53 PM,27.0,14.0,58,30.34,10.0,South,3.5,-,N/A,,Overcast,180,2013-11-28 22:53:00
6:53 PM,26.1,15.1,63,30.36,10.0,South,4.6,-,N/A,,Overcast,170,2013-11-28 23:53:00
7:53 PM,27.0,16.0,63,30.38,10.0,SSW,4.6,-,N/A,,Overcast,210,2013-11-29 00:53:00
8:53 PM,27.0,17.1,66,30.39,10.0,WSW,3.5,-,N/A,,Overcast,240,2013-11-29 01:53:00
9:53 PM,28.0,17.1,63,30.41,10.0,WSW,4.6,-,N/A,,Overcast,250,2013-11-29 02:53:00
10:53 PM,28.0,19.0,69,30.43,10.0,West,6.9,-,N/A,,Overcast,280,2013-11-29 03:53:00
11:53 PM,28.9,19.9,69,30.45,10.0,WNW,5.8,-,N/A,,Overcast,290,2013-11-29 04:53:00